Del Bajio, Mexico

12:40 PM CDT on April 19, 2018 (GMT -0500)
De Guanajuato International

Weather History for MMLO - January, 2013

Change the Weather History Date:

Tuesday, January 1, 2013

  Actual Average Record
Temperature  
Mean Temperature 60 °F -  
Max Temperature 64 °F 74 °F 80 °F (2003)
Min Temperature 55 °F 41 °F 37 °F (2011)
Degree Days  
Heating Degree Days 6    
Growing Degree Days 10 (Base 50)    
Moisture  
Dew Point 56 °F    
Average Humidity 92    
Maximum Humidity 100    
Minimum Humidity 72    
Precipitation  
Precipitation 0.00 in - - ()
Sea Level Pressure  
Sea Level Pressure 30.10 in    
Wind  
Wind Speed 1 mph ()    
Max Wind Speed 6 mph    
Max Gust Speed -    
Visibility 7.9 miles    
Events      
Averages and records for this station are not official NWS values.
T = Trace of Precipitation, MM = Missing Value Source: Averaged Metar Reports

Daily Weather History Graph

Daily Weather History Graph

Search for Another Location

Airport or City:

Astronomy

Jan. 01, 2013 Rise Set
Actual Time 7:23 AM CST 6:16 PM CST
Civil Twilight 6:59 AM CST 6:40 PM CST
Nautical Twilight 6:31 AM CST 7:08 PM CST
Astronomical Twilight 6:04 AM CST 7:35 PM CST
Moon 10:13 PM CST (1/1) 10:08 AM CST (1/1)
Length of Visible Light 11h 41m
Length of Day
10h 53m
Waning Gibbous, 83% of the Moon is Illuminated
Jan 1
Waning Gibbous
Jan 4
Last Quarter
Jan 11
New
Jan 18
First Quarter
Jan 26
Full

Hourly Weather History & Observations

Time (CST) Temp. Dew Point Humidity Pressure Visibility Wind Dir Wind Speed Gust Speed Precip Events Conditions
12:46 AM 55.4 °F 55.4 °F 100% 30.27 in 6.0 mi NW 5.8 mph - N/A   Drizzle
1:43 AM 55.4 °F 55.4 °F 100% 30.27 in 8.0 mi Calm Calm - N/A   Overcast
2:40 AM 55.4 °F 55.4 °F 100% 29.93 in 8.0 mi Calm Calm - N/A   Overcast
3:44 AM 55.4 °F 55.4 °F 100% 30.21 in 8.0 mi Calm Calm - N/A   Overcast
4:43 AM 55.4 °F 55.4 °F 100% 30.21 in 8.0 mi Calm Calm - N/A   Overcast
5:41 AM 55.4 °F 55.4 °F 100% 29.91 in 6.0 mi Calm Calm - N/A   Overcast
6:44 AM 55.4 °F 55.4 °F 100% 30.21 in 7.0 mi Calm Calm - N/A   Overcast
7:42 AM 55.4 °F 55.4 °F 100% 30.21 in 7.0 mi Calm Calm - N/A   Overcast
8:43 AM 55.4 °F 55.4 °F 100% 29.97 in 6.0 mi Calm Calm - N/A   Overcast
9:44 AM 57.2 °F 57.2 °F 100% 30.24 in 7.0 mi Calm Calm - N/A   Overcast
10:44 AM 60.8 °F 59.0 °F 94% 30.24 in 8.0 mi Calm Calm - N/A   Overcast
11:40 AM 60.8 °F 55.4 °F 82% 29.97 in 8.0 mi Calm Calm - N/A   Overcast
12:43 PM 62.6 °F 55.4 °F 77% 30.21 in 9.0 mi Calm Calm - N/A   Overcast
1:42 PM 62.6 °F 55.4 °F 77% 30.15 in 9.0 mi Calm Calm - N/A   Overcast
2:44 PM 64.4 °F 55.4 °F 73% 29.83 in 10.0 mi Calm Calm - N/A   Overcast
3:48 PM 64.4 °F 55.4 °F 73% 30.12 in 10.0 mi SSE 4.6 mph - N/A   Overcast
4:49 PM 62.6 °F 53.6 °F 72% 30.12 in 8.0 mi East 3.5 mph - N/A   Overcast
6:00 PM 60.8 °F 55.4 °F 82% 29.80 in 8.0 mi Calm Calm - N/A   Overcast
6:42 PM 60.8 °F 55.4 °F 82% 30.15 in 8.0 mi Calm Calm - N/A   Overcast
7:49 PM 57.2 °F 57.2 °F 100% 30.15 in 8.0 mi Calm Calm - N/A   Mostly Cloudy
8:42 PM 57.2 °F 57.2 °F 100% 29.88 in 8.0 mi Calm Calm - N/A   Overcast
9:50 PM 57.2 °F 57.2 °F 100% 30.18 in 8.0 mi Calm Calm - N/A   Overcast
10:43 PM 57.2 °F 57.2 °F 100% 30.18 in 8.0 mi Calm Calm - N/A   Overcast
11:41 PM 57.2 °F 57.2 °F 100% 29.93 in 8.0 mi Calm Calm - N/A   Mostly Cloudy